TimeEST,TemperatureF,Dew PointF,Humidity,Sea Level PressureIn,VisibilityMPH,Wind Direction,Wind SpeedMPH,Gust SpeedMPH,PrecipitationIn,Events,Conditions,WindDirDegrees,DateUTC
12:14 AM,41.0,28.4,61,30.15,10.0,SSE,6.9,-,N/A,,Overcast,160,2012-11-30 05:14:00
12:35 AM,41.0,28.4,61,30.15,10.0,SSE,8.1,-,N/A,,Overcast,160,2012-11-30 05:35:00
12:55 AM,41.0,28.4,61,30.14,10.0,South,5.8,-,N/A,,Overcast,170,2012-11-30 05:55:00
1:14 AM,41.0,28.4,61,30.14,10.0,South,5.8,-,N/A,,Overcast,170,2012-11-30 06:14:00
1:35 AM,39.2,28.4,65,30.14,10.0,South,3.5,-,N/A,,Mostly Cloudy,170,2012-11-30 06:35:00
1:55 AM,37.4,28.4,70,30.14,10.0,SSE,4.6,-,N/A,,Scattered Clouds,160,2012-11-30 06:55:00
2:15 AM,37.4,28.4,70,30.14,10.0,SSE,4.6,-,N/A,,Scattered Clouds,160,2012-11-30 07:15:00
2:35 AM,39.2,28.4,65,30.14,10.0,South,5.8,-,N/A,,Scattered Clouds,170,2012-11-30 07:35:00
2:54 AM,39.2,28.4,65,30.15,10.0,SSE,4.6,-,N/A,,Mostly Cloudy,160,2012-11-30 07:54:00
3:15 AM,39.2,28.4,65,30.14,10.0,SSE,4.6,-,N/A,,Overcast,160,2012-11-30 08:15:00
3:34 AM,39.2,28.4,65,30.14,10.0,SSE,4.6,-,N/A,,Overcast,160,2012-11-30 08:34:00
3:55 AM,41.0,28.4,61,30.13,10.0,South,8.1,-,N/A,,Overcast,170,2012-11-30 08:55:00
4:15 AM,41.0,28.4,61,30.12,10.0,South,6.9,-,N/A,,Overcast,170,2012-11-30 09:15:00
4:35 AM,41.0,28.4,61,30.12,10.0,SSE,5.8,-,N/A,,Overcast,160,2012-11-30 09:35:00
4:55 AM,41.0,28.4,61,30.12,10.0,SSE,5.8,-,N/A,,Overcast,160,2012-11-30 09:55:00
5:15 AM,41.0,28.4,61,30.12,10.0,South,6.9,-,N/A,,Overcast,170,2012-11-30 10:15:00
5:35 AM,41.0,28.4,61,30.12,10.0,SSE,6.9,-,N/A,,Overcast,160,2012-11-30 10:35:00
5:55 AM,41.0,28.4,61,30.11,10.0,SSE,8.1,-,N/A,,Overcast,150,2012-11-30 10:55:00
6:14 AM,39.2,28.4,65,30.11,10.0,SSE,5.8,-,N/A,,Mostly Cloudy,150,2012-11-30 11:14:00
6:35 AM,39.2,28.4,65,30.12,10.0,South,3.5,-,N/A,,Scattered Clouds,170,2012-11-30 11:35:00
6:55 AM,39.2,28.4,65,30.13,10.0,SSE,3.5,-,N/A,,Scattered Clouds,160,2012-11-30 11:55:00
7:15 AM,37.4,28.4,70,30.13,10.0,SSE,4.6,-,N/A,,Scattered Clouds,150,2012-11-30 12:15:00
7:35 AM,37.4,28.4,70,30.12,10.0,SSE,8.1,-,N/A,,Mostly Cloudy,150,2012-11-30 12:35:00
7:55 AM,37.4,28.4,70,30.12,10.0,SSE,6.9,-,N/A,,Scattered Clouds,150,2012-11-30 12:55:00
8:15 AM,37.4,28.4,70,30.12,10.0,SE,4.6,-,N/A,,Scattered Clouds,140,2012-11-30 13:15:00
8:34 AM,37.4,28.4,70,30.12,10.0,SSE,5.8,-,N/A,,Scattered Clouds,150,2012-11-30 13:34:00
8:55 AM,37.4,28.4,70,30.12,10.0,SE,4.6,-,N/A,,Mostly Cloudy,140,2012-11-30 13:55:00
9:15 AM,37.4,28.4,70,30.12,10.0,SSE,5.8,-,N/A,,Mostly Cloudy,150,2012-11-30 14:15:00
9:34 AM,39.2,28.4,65,30.12,10.0,SSE,5.8,-,N/A,,Overcast,150,2012-11-30 14:34:00
9:55 AM,39.2,28.4,65,30.12,10.0,SSE,5.8,-,N/A,,Overcast,150,2012-11-30 14:55:00
10:15 AM,41.0,28.4,61,30.13,10.0,South,5.8,-,N/A,,Scattered Clouds,170,2012-11-30 15:15:00
10:34 AM,42.8,30.2,61,30.13,10.0,SSE,6.9,-,N/A,,Clear,150,2012-11-30 15:34:00
10:55 AM,42.8,30.2,61,30.12,10.0,South,6.9,-,N/A,,Scattered Clouds,170,2012-11-30 15:55:00
11:15 AM,44.6,30.2,57,30.12,10.0,South,5.8,-,N/A,,Scattered Clouds,190,2012-11-30 16:15:00
11:35 AM,44.6,30.2,57,30.12,10.0,Calm,Calm,-,N/A,,Scattered Clouds,0,2012-11-30 16:35:00
11:55 AM,46.4,30.2,53,30.11,10.0,South,5.8,-,N/A,,Clear,190,2012-11-30 16:55:00
12:15 PM,46.4,30.2,53,30.10,10.0,South,6.9,-,N/A,,Clear,180,2012-11-30 17:15:00
12:35 PM,46.4,30.2,53,30.09,10.0,South,5.8,-,N/A,,Scattered Clouds,170,2012-11-30 17:35:00
12:55 PM,46.4,30.2,53,30.10,10.0,Calm,Calm,-,N/A,,Scattered Clouds,0,2012-11-30 17:55:00
1:15 PM,46.4,30.2,53,30.09,10.0,Calm,Calm,-,N/A,,Scattered Clouds,0,2012-11-30 18:15:00
1:35 PM,46.4,30.2,53,30.09,10.0,Calm,Calm,-,N/A,,Scattered Clouds,0,2012-11-30 18:35:00
1:55 PM,46.4,30.2,53,30.08,10.0,South,3.5,-,N/A,,Mostly Cloudy,180,2012-11-30 18:55:00
2:14 PM,48.2,30.2,50,30.08,10.0,South,4.6,-,N/A,,Mostly Cloudy,170,2012-11-30 19:14:00
2:35 PM,46.4,32.0,57,30.08,10.0,South,3.5,-,N/A,,Scattered Clouds,190,2012-11-30 19:35:00
2:55 PM,48.2,32.0,54,30.08,10.0,South,3.5,-,N/A,,Scattered Clouds,180,2012-11-30 19:55:00
3:14 PM,48.2,32.0,54,30.09,10.0,SSE,4.6,-,N/A,,Mostly Cloudy,160,2012-11-30 20:14:00
3:35 PM,48.2,32.0,54,30.09,10.0,SSE,3.5,-,N/A,,Mostly Cloudy,160,2012-11-30 20:35:00
3:55 PM,46.4,32.0,57,30.09,10.0,SSE,3.5,-,N/A,,Mostly Cloudy,160,2012-11-30 20:55:00
4:14 PM,46.4,32.0,57,30.10,10.0,SE,3.5,-,N/A,,Scattered Clouds,140,2012-11-30 21:14:00
4:35 PM,46.4,32.0,57,30.10,10.0,SSE,3.5,-,N/A,,Scattered Clouds,150,2012-11-30 21:35:00
4:55 PM,46.4,32.0,57,30.11,10.0,Calm,Calm,-,N/A,,Mostly Cloudy,0,2012-11-30 21:55:00
5:15 PM,46.4,32.0,57,30.11,10.0,SSE,4.6,-,N/A,,Scattered Clouds,150,2012-11-30 22:15:00
5:35 PM,44.6,30.2,57,30.13,10.0,Calm,Calm,-,N/A,,Scattered Clouds,0,2012-11-30 22:35:00
5:55 PM,44.6,30.2,57,30.13,10.0,ENE,3.5,-,N/A,,Scattered Clouds,70,2012-11-30 22:55:00
6:15 PM,39.2,30.2,70,30.13,10.0,East,3.5,-,N/A,,Scattered Clouds,100,2012-11-30 23:15:00
6:35 PM,42.8,30.2,61,30.15,10.0,East,3.5,-,N/A,,Mostly Cloudy,90,2012-11-30 23:35:00
6:54 PM,42.8,30.2,61,30.15,10.0,East,3.5,-,N/A,,Mostly Cloudy,80,2012-11-30 23:54:00
7:15 PM,39.2,30.2,70,30.16,10.0,NE,3.5,-,N/A,,Clear,50,2012-12-01 00:15:00
7:35 PM,41.0,30.2,65,30.17,10.0,Calm,Calm,-,N/A,,Clear,0,2012-12-01 00:35:00
7:55 PM,37.4,30.2,75,30.18,10.0,NNE,3.5,-,N/A,,Clear,30,2012-12-01 00:55:00
8:15 PM,35.6,28.4,75,30.17,10.0,ENE,4.6,-,N/A,,Clear,70,2012-12-01 01:15:00
8:35 PM,37.4,30.2,75,30.17,10.0,ENE,5.8,-,N/A,,Scattered Clouds,70,2012-12-01 01:35:00
8:55 PM,37.4,30.2,75,30.17,10.0,East,6.9,-,N/A,,Scattered Clouds,80,2012-12-01 01:55:00
9:15 PM,37.4,30.2,75,30.17,10.0,East,6.9,-,N/A,,Clear,80,2012-12-01 02:15:00
9:35 PM,39.2,30.2,70,30.16,10.0,East,9.2,-,N/A,,Clear,90,2012-12-01 02:35:00
9:55 PM,37.4,30.2,75,30.16,10.0,East,8.1,-,N/A,,Clear,100,2012-12-01 02:55:00
10:14 PM,37.4,30.2,75,30.15,10.0,ESE,11.5,-,N/A,,Clear,110,2012-12-01 03:14:00
10:35 PM,37.4,30.2,75,30.15,10.0,ESE,9.2,-,N/A,,Clear,110,2012-12-01 03:35:00
10:55 PM,35.6,30.2,81,30.16,10.0,ESE,6.9,-,N/A,,Clear,110,2012-12-01 03:55:00
11:15 PM,35.6,30.2,81,30.16,10.0,ESE,6.9,-,N/A,,Clear,110,2012-12-01 04:15:00
11:35 PM,35.6,30.2,81,30.17,10.0,Calm,Calm,-,N/A,,Clear,0,2012-12-01 04:35:00
11:55 PM,35.6,30.2,81,30.16,10.0,ESE,4.6,-,N/A,,Clear,120,2012-12-01 04:55:00